VK2HAR Weather Reports


Display with metric or nautical units.
time (UTC)temp
F
wind
direction
speed
MPH
gust
MPH
rain 1hr
in
rain 24hr
in
rain mn
in
humidity
%
barometer
mb
20260505054503 74 173 2.0 5.0 0.00 0.02 0.00 45 1017.1
20260505053603 74 172 2.0 5.0 0.00 0.02 0.00 44 1017.2
20260505052703 74 171 2.0 5.0 0.00 0.02 0.00 45 1017.2
20260505051803 74 169 2.0 5.0 0.00 0.02 0.00 43 1017.2
20260505050903 73 168 3.0 6.0 0.00 0.02 0.00 44 1017.2
20260505040903 74 235 3.0 7.0 0.00 0.02 0.00 43 1016.7
20260505040004 74 223 3.0 5.0 0.00 0.02 0.00 42 1016.6
20260505035403 73 198 4.0 7.0 0.00 0.02 0.00 44 1016.7
20260505034503 73 202 3.0 6.0 0.00 0.02 0.00 42 1016.7
20260505033603 73 248 5.0 10.0 0.00 0.02 0.00 44 1016.7
20260505032703 74 256 4.0 9.0 0.00 0.02 0.00 42 1016.7
20260505032019 73 250 3.0 7.0 0.00 0.02 0.00 42 1016.6
20260505030903 73 209 3.0 8.0 0.00 0.02 0.00 46 1016.8
20260505030217 73 238 3.0 9.0 0.00 0.02 0.00 46 1017.0
20260505025403 72 252 4.0 9.0 0.00 0.02 0.00 45 1017.0
20260505024503 72 289 5.0 11.0 0.00 0.02 0.00 49 1017.1
20260505023603 71 296 5.0 10.0 0.00 0.02 0.00 48 1017.1
20260505022703 71 249 3.0 8.0 0.00 0.02 0.00 47 1017.2
20260505022018 71 263 4.0 12.0 0.00 0.02 0.00 49 1017.3
20260505020903 70 293 4.0 11.0 0.00 0.02 0.00 49 1017.5
20260505020003 70 290 6.0 12.0 0.00 0.02 0.00 49 1017.5
20260505015403 70 279 4.0 10.0 0.00 0.02 0.00 51 1017.6
20260505014503 70 281 4.0 12.0 0.00 0.04 0.00 51 1017.7
20260505013603 69 297 7.0 14.0 0.00 0.07 0.00 52 1017.7
20260505012703 69 277 5.0 11.0 0.00 0.08 0.00 54 1018.1
20260505011803 69 251 5.0 11.0 0.00 0.08 0.00 52 1018.2
20260505010903 69 258 5.0 11.0 0.00 0.08 0.00 54 1018.4
20260505010003 68 275 8.0 13.0 0.00 0.09 0.00 56 1018.4
20260505005403 68 288 8.0 14.0 0.00 0.09 0.00 54 1018.6
20260505004720 68 280 7.0 15.0 0.00 0.09 0.00 55 1018.6
20260505003819 67 273 5.0 12.0 0.00 0.11 0.00 61 1018.8
20260505002703 66 286 6.0 12.0 0.00 0.12 0.00 61 1019.0
20260505001803 66 283 7.0 11.0 0.00 0.12 0.00 60 1019.2
20260505000903 65 281 5.0 11.0 0.00 0.13 0.00 61 1019.2
20260505000004 65 275 3.0 8.0 0.00 0.13 0.00 61 1019.4
20260504235403 65 280 2.0 8.0 0.00 0.13 0.00 62 1019.4
20260504234503 64 293 1.0 5.0 0.00 0.13 0.00 63 1019.6
20260504233603 64 297 1.0 5.0 0.00 0.13 0.00 61 1019.6
20260504232918 64 297 2.0 4.0 0.00 0.14 0.00 62 1019.6
20260504231803 63 296 1.0 4.0 0.00 0.14 0.00 67 1019.8
20260504230903 63 294 0.0 2.0 0.00 0.14 0.00 70 1019.8
20260504230003 62 294 1.0 3.0 0.00 0.15 0.00 75 1019.8
20260504225619 61 294 1.0 5.0 0.00 0.15 0.00 76 1019.9
20260504224504 61 245 1.0 4.0 0.00 0.17 0.00 76 1019.7
20260504223603 60 241 0.0 2.0 0.00 0.18 0.00 77 1019.7
20260504222703 58 241 1.0 3.0 0.00 0.20 0.00 79 1019.6
20260504221803 57 241 0.0 2.0 0.00 0.20 0.00 81 1019.4
20260504220903 56 241 1.0 3.0 0.00 0.20 0.00 83 1019.2
20260504220003 55 240 1.0 3.0 0.00 0.20 0.00 84 1019.1
20260504215403 54 240 1.0 3.0 0.00 0.20 0.00 85 1019.1
20260504214504 53 0 0.0 0.0 0.00 0.20 0.00 86 1019.0
20260504213603 52 240 0.0 2.0 0.00 0.20 0.00 88 1018.8
20260504212706 52 240 1.0 2.0 0.00 0.20 0.00 89 1018.6
20260504212016 52 240 1.0 2.0 0.00 0.20 0.00 89 1018.5
20260504210903 51 240 1.0 4.0 0.00 0.20 0.00 89 1018.3
20260504210004 52 258 1.0 3.0 0.00 0.20 0.00 89 1018.3
20260504205404 52 308 2.0 4.0 0.00 0.20 0.00 89 1018.3
20260504204503 51 314 2.0 4.0 0.00 0.20 0.00 91 1018.2
20260504203603 51 314 1.0 4.0 0.00 0.20 0.00 92 1018.1
20260504202917 51 314 0.0 2.0 0.00 0.20 0.00 92 1017.8
20260504202016 51 314 1.0 3.0 0.00 0.20 0.00 92 1017.7
20260504200903 51 314 0.0 2.0 0.00 0.20 0.00 92 1017.6
20260504200003 51 314 2.0 4.0 0.00 0.20 0.00 91 1017.5
20260504195403 52 314 2.0 4.0 0.00 0.20 0.00 91 1017.4
20260504194503 52 314 0.0 2.0 0.00 0.20 0.00 90 1017.4
20260504193603 52 314 1.0 3.0 0.00 0.20 0.00 90 1017.2
20260504192703 53 314 1.0 3.0 0.00 0.20 0.00 89 1017.2
20260504191803 54 314 2.0 3.0 0.00 0.20 0.00 88 1017.2
20260504190903 54 314 3.0 4.0 0.00 0.20 0.00 88 1017.2
20260504190004 54 314 3.0 5.0 0.00 0.20 0.00 90 1017.2
20260504185403 54 314 3.0 5.0 0.00 0.20 0.00 91 1017.1
20260504184503 54 315 4.0 5.0 0.00 0.20 0.00 92 1017.1
20260504183604 53 350 4.0 5.0 0.00 0.20 0.00 93 1016.9
20260504182916 53 93 3.0 4.0 0.00 0.20 0.00 94 1016.8
20260504181803 54 96 2.0 3.0 0.00 0.20 0.00 94 1016.7
20260504181119 54 96 1.0 3.0 0.00 0.20 0.00 94 1016.6
20260504180004 54 96 0.0 2.0 0.00 0.20 0.00 94 1016.6
20260504175617 55 96 1.0 3.0 0.00 0.20 0.00 94 1016.5
20260504174504 55 96 0.0 2.0 0.00 0.20 0.00 95 1016.5
20260504173603 56 96 0.0 2.0 0.00 0.20 0.00 95 1016.6
20260504172703 56 0 0.0 0.0 0.00 0.20 0.00 95 1016.5
20260504171804 56 0 0.0 0.0 0.00 0.20 0.00 95 1016.4
20260504170903 57 96 0.0 2.0 0.00 0.20 0.00 94 1016.4
20260504160217 61 0 0.0 0.0 0.00 0.20 0.00 96 1016.5
20260504150906 62 98 1.0 2.0 0.00 0.20 0.00 96 1016.1
20260504141117 63 98 0.0 2.0 0.00 0.20 0.00 95 1016.2
20260504120216 63 207 2.0 4.0 0.00 0.19 0.19 92 1016.2
20260504081803 66 57 2.0 4.0 0.00 0.19 0.19 87 1014.7
20260504080903 66 57 1.0 3.0 0.00 0.19 0.19 87 1014.5
20260504070218 67 58 4.0 6.0 0.00 0.19 0.19 86 1014.4